This is the latest recevied weather packets stored in our database for station/object KY4LEX. If no packets are shown the sender has not sent any weather packets the latest 10 day(s).
| Time | Temp. | Humidity | Pressure | Rain* | Wind** | Luminosity | Snow |
|---|---|---|---|---|---|---|---|
| 1777853329 | 15.56° C | 41% | 1019.8 hPa | 0 mm | - | 11 W/m² | - |
| 1777853026 | 15.56° C | 41% | 1019.9 hPa | 0 mm | - | 20 W/m² | - |
| 1777852723 | 15.56° C | 41% | 1019.8 hPa | 0 mm | - | 21 W/m² | - |
| 1777852421 | 16.11° C | 38% | 1019.8 hPa | 0 mm | - | 24 W/m² | - |
| 1777852118 | 16.11° C | 39% | 1020.2 hPa | 0 mm | - | 27 W/m² | - |
| 1777851816 | 16.11° C | 39% | 1020.3 hPa | 0 mm | - | 29 W/m² | - |
| 1777851513 | 16.11° C | 39% | 1020.2 hPa | 0 mm | - | 42 W/m² | - |
| 1777851209 | 16.11° C | 40% | 1020.1 hPa | 0 mm | - | 35 W/m² | - |
| 1777850906 | 16.11° C | 38% | 1020.3 hPa | 0 mm | - | 38 W/m² | - |
| 1777850603 | 16.11° C | 37% | 1020.5 hPa | 0 mm | - | 39 W/m² | - |
| 1777850301 | 16.11° C | 37% | 1020.5 hPa | 0 mm | - | 44 W/m² | - |
| 1777849998 | 16.67° C | 37% | 1020.4 hPa | 0 mm | - | 48 W/m² | - |
| 1777849694 | 16.67° C | 36% | 1020.6 hPa | 0 mm | - | 55 W/m² | - |
| 1777849391 | 16.67° C | 35% | 1020.6 hPa | 0 mm | - | 67 W/m² | - |
| 1777849089 | 16.67° C | 35% | 1020.5 hPa | 0 mm | - | 79 W/m² | - |
| 1777848784 | 17.22° C | 35% | 1020.4 hPa | 0 mm | - | 76 W/m² | - |
| 1777848481 | 17.22° C | 34% | 1020.8 hPa | 0 mm | - | 96 W/m² | - |
| 1777848178 | 17.78° C | 34% | 1021 hPa | 0 mm | - | 87 W/m² | - |
| 1777847876 | 17.78° C | 33% | 1020.9 hPa | 0 mm | - | 154 W/m² | - |
| 1777847573 | 17.78° C | 34% | 1020.8 hPa | 0 mm | - | 91 W/m² | - |
| 1777847269 | 17.22° C | 35% | 1020.9 hPa | 0 mm | - | 215 W/m² | - |
| 1777846967 | 17.22° C | 34% | 1020.9 hPa | 0 mm | - | 79 W/m² | - |
| 1777846666 | 17.78° C | 32% | 1021 hPa | 0 mm | - | 86 W/m² | - |
| 1777846363 | 17.78° C | 33% | 1021.4 hPa | 0 mm | - | 203 W/m² | - |
| 1777846059 | 17.78° C | 33% | 1021.2 hPa | 0 mm | - | 241 W/m² | - |
* Rain latest hour (hover to see other rain measurements)
** Current wind speed in m/s (hover to see current wind gust speed)